When you browse on this site, cookies collect data to enhance your experience and personalize the content and advertising you see.
Visit our Privacy Policy to learn more. By continuing to use the site, you agree to this use of cookies and data.
  • In France
  • List of Countries
  • For 7 days
  • Water Temperature
  • Satellite Maps
  • Weather Map
  • Weather Widgets
  • user-avatar
    Login

    Hourly Weather Sent-Eli

    Today, 23 May, Thursday

    Time Temperature Precipitation Wind Pressure Humidity
    00:00 +26°C° 2.5 mm 1 mps 755 mmHg 94%
    01:00 +26°C° 2.5 mm 2 mps 755 mmHg 94%
    02:00 +26°C° 0 mm 2 mps 755 mmHg 93%
    03:00 +26°C° 2 mm 3 mps 755 mmHg 93%
    04:00 +26°C° 2 mm 3 mps 755 mmHg 94%
    05:00 +26°C° 2 mm 3 mps 755 mmHg 94%
    06:00 +26°C° 0.2 mm 3 mps 755 mmHg 92%
    07:00 +27°C° 0.2 mm 2 mps 755 mmHg 90%
    08:00 +28°C° 0 mm 2 mps 756 mmHg 88%
    09:00 +29°C° 1.4 mm 2 mps 755 mmHg 87%
    10:00 +29°C° 1.4 mm 2 mps 755 mmHg 85%
    11:00 +30°C° 1.4 mm 3 mps 755 mmHg 84%
    12:00 +30°C° 1 mm 3 mps 755 mmHg 83%
    13:00 +30°C° 1 mm 3 mps 754 mmHg 83%
    14:00 +30°C° 1 mm 3 mps 754 mmHg 83%
    15:00 +29°C° 0.2 mm 3 mps 754 mmHg 84%
    16:00 +29°C° 0.2 mm 3 mps 754 mmHg 84%
    17:00 +28°C° 0.2 mm 3 mps 754 mmHg 85%
    18:00 +28°C° 0.1 mm 3 mps 754 mmHg 87%
    19:00 +28°C° 0.1 mm 3 mps 755 mmHg 88%
    20:00 +27°C° 0.1 mm 3 mps 755 mmHg 89%
    21:00 +27°C° 0.3 mm 4 mps 755 mmHg 91%
    22:00 +27°C° 0.3 mm 4 mps 755 mmHg 92%
    23:00 +27°C° 0.3 mm 4 mps 756 mmHg 93%

    Tomorrow, 24 May, Friday

    Time Temperature Precipitation Wind Pressure Humidity
    00:00 +27°C° 0.4 mm 4 mps 755 mmHg 93%
    01:00 +27°C° 0.4 mm 4 mps 755 mmHg 94%
    02:00 +27°C° 0.4 mm 4 mps 754 mmHg 94%
    03:00 +26°C° 0.4 mm 4 mps 755 mmHg 94%
    04:00 +26°C° 0.4 mm 4 mps 755 mmHg 94%
    05:00 +26°C° 0.4 mm 4 mps 755 mmHg 93%
    06:00 +27°C° 0.2 mm 4 mps 755 mmHg 91%
    07:00 +28°C° 0.2 mm 4 mps 756 mmHg 88%
    08:00 +29°C° 0.2 mm 4 mps 756 mmHg 86%
    09:00 +29°C° 0.2 mm 4 mps 756 mmHg 84%
    10:00 +30°C° 0.2 mm 4 mps 756 mmHg 81%
    11:00 +32°C° 0.2 mm 4 mps 756 mmHg 79%
    12:00 +30°C° 0.4 mm 4 mps 755 mmHg 80%
    13:00 +30°C° 0.4 mm 4 mps 755 mmHg 82%
    14:00 +30°C° 0.4 mm 5 mps 754 mmHg 84%
    15:00 +29°C° 0.1 mm 5 mps 754 mmHg 85%
    16:00 +29°C° 0.1 mm 5 mps 754 mmHg 86%
    17:00 +29°C° 0.1 mm 5 mps 754 mmHg 87%
    18:00 +28°C° 0 mm 5 mps 754 mmHg 88%
    19:00 +28°C° 0 mm 5 mps 755 mmHg 89%
    20:00 +27°C° 0 mm 4 mps 755 mmHg 90%
    21:00 +27°C° 0.5 mm 4 mps 755 mmHg 90%
    22:00 +27°C° 0.5 mm 4 mps 756 mmHg 91%
    23:00 +27°C° 0.5 mm 4 mps 756 mmHg 91%

    Day after tomorrow, 25 May, Saturday

    Time Temperature Precipitation Wind Pressure Humidity
    00:00 +27°C° 3.3 mm 4 mps 755 mmHg 92%
    01:00 +27°C° 3.3 mm 5 mps 755 mmHg 92%
    02:00 +26°C° 3.3 mm 5 mps 754 mmHg 93%
    03:00 +26°C° 4.3 mm 5 mps 754 mmHg 93%
    04:00 +26°C° 4.3 mm 5 mps 754 mmHg 93%
    05:00 +26°C° 4.3 mm 6 mps 754 mmHg 92%
    06:00 +27°C° 1.8 mm 5 mps 755 mmHg 92%
    07:00 +28°C° 1.8 mm 5 mps 755 mmHg 91%
    08:00 +28°C° 1.8 mm 5 mps 756 mmHg 90%
    09:00 +29°C° 0.6 mm 5 mps 756 mmHg 88%
    10:00 +29°C° 0.6 mm 5 mps 755 mmHg 86%
    11:00 +30°C° 0.6 mm 5 mps 755 mmHg 85%
    12:00 +30°C° 0.1 mm 5 mps 755 mmHg 81%
    13:00 +32°C° 0.1 mm 5 mps 754 mmHg 77%
    14:00 +32°C° 0.1 mm 5 mps 753 mmHg 74%
    15:00 +30°C° 0 mm 5 mps 753 mmHg 76%
    16:00 +30°C° 0 mm 5 mps 753 mmHg 79%
    17:00 +29°C° 0 mm 5 mps 753 mmHg 81%
    18:00 +29°C° 0 mm 5 mps 753 mmHg 84%
    19:00 +28°C° 0 mm 5 mps 754 mmHg 86%
    20:00 +28°C° 0 mm 5 mps 754 mmHg 88%
    21:00 +28°C° 0.1 mm 5 mps 755 mmHg 89%
    22:00 +28°C° 0.1 mm 5 mps 755 mmHg 89%
    23:00 +28°C° 0.1 mm 5 mps 755 mmHg 90%

    26 May, Sunday

    Time Temperature Precipitation Wind Pressure Humidity
    00:00 +27°C° 0 mm 5 mps 754 mmHg 90%
    01:00 +27°C° 0 mm 5 mps 754 mmHg 90%
    02:00 +27°C° 0 mm 4 mps 754 mmHg 91%
    03:00 +27°C° 0 mm 4 mps 754 mmHg 91%
    04:00 +27°C° 0 mm 4 mps 754 mmHg 91%
    05:00 +27°C° 0 mm 4 mps 754 mmHg 91%
    06:00 +28°C° 0 mm 4 mps 754 mmHg 87%
    07:00 +29°C° 0 mm 4 mps 755 mmHg 82%
    08:00 +30°C° 0 mm 4 mps 755 mmHg 78%
    09:00 +32°C° 0 mm 4 mps 755 mmHg 74%
    10:00 +33°C° 0 mm 4 mps 755 mmHg 70%
    11:00 +33°C° 0 mm 4 mps 755 mmHg 66%
    12:00 +33°C° 0 mm 4 mps 754 mmHg 66%
    13:00 +33°C° 0 mm 4 mps 754 mmHg 65%
    14:00 +33°C° 0 mm 4 mps 753 mmHg 65%
    15:00 +32°C° 0.2 mm 4 mps 753 mmHg 70%
    16:00 +30°C° 0.2 mm 4 mps 753 mmHg 76%
    17:00 +29°C° 0.2 mm 4 mps 753 mmHg 81%
    18:00 +29°C° 0.3 mm 4 mps 753 mmHg 83%
    19:00 +28°C° 0.3 mm 4 mps 754 mmHg 86%
    20:00 +28°C° 0.3 mm 4 mps 754 mmHg 89%
    21:00 +28°C° 0.6 mm 4 mps 754 mmHg 89%
    22:00 +27°C° 0.6 mm 4 mps 755 mmHg 90%
    23:00 +27°C° 0.6 mm 4 mps 755 mmHg 90%

    27 May, Monday

    Time Temperature Precipitation Wind Pressure Humidity
    00:00 +27°C° 0.3 mm 4 mps 754 mmHg 90%
    01:00 +27°C° 0.3 mm 4 mps 753 mmHg 91%
    02:00 +27°C° 0.3 mm 3 mps 753 mmHg 91%
    03:00 +27°C° 0.9 mm 3 mps 753 mmHg 92%
    04:00 +27°C° 0.9 mm 3 mps 753 mmHg 92%
    05:00 +27°C° 0.9 mm 3 mps 753 mmHg 93%
    06:00 +27°C° 2.7 mm 3 mps 754 mmHg 91%
    07:00 +28°C° 2.7 mm 4 mps 754 mmHg 90%
    08:00 +28°C° 2.7 mm 4 mps 755 mmHg 88%
    09:00 +28°C° 3.5 mm 5 mps 755 mmHg 88%
    10:00 +29°C° 3.5 mm 5 mps 754 mmHg 88%
    11:00 +29°C° 3.5 mm 6 mps 754 mmHg 89%
    12:00 +29°C° 2.3 mm 6 mps 754 mmHg 89%
    13:00 +29°C° 2.3 mm 6 mps 753 mmHg 89%
    14:00 +29°C° 2.3 mm 6 mps 753 mmHg 88%
    15:00 +28°C° 1.3 mm 6 mps 753 mmHg 89%
    16:00 +28°C° 1.3 mm 6 mps 753 mmHg 90%
    17:00 +28°C° 1.3 mm 7 mps 753 mmHg 91%
    18:00 +27°C° 0.7 mm 7 mps 753 mmHg 91%
    19:00 +27°C° 0.7 mm 7 mps 754 mmHg 92%
    20:00 +27°C° 0.7 mm 7 mps 754 mmHg 92%
    21:00 +27°C° 0.6 mm 6 mps 754 mmHg 92%
    22:00 +27°C° 0.6 mm 6 mps 754 mmHg 92%
    23:00 +27°C° 0.6 mm 6 mps 754 mmHg 92%

    28 May, Tuesday

    Time Temperature Precipitation Wind Pressure Humidity
    00:00 +27°C° 0.9 mm 6 mps 754 mmHg 92%
    01:00 +27°C° 0.9 mm 6 mps 753 mmHg 92%
    02:00 +27°C° 0.9 mm 6 mps 753 mmHg 92%
    03:00 +27°C° 1.6 mm 6 mps 753 mmHg 93%
    04:00 +27°C° 1.6 mm 6 mps 753 mmHg 93%
    05:00 +27°C° 1.6 mm 6 mps 753 mmHg 93%
    06:00 +27°C° 1.5 mm 6 mps 754 mmHg 92%
    07:00 +28°C° 1.5 mm 6 mps 754 mmHg 91%
    08:00 +28°C° 1.5 mm 6 mps 755 mmHg 90%
    09:00 +28°C° 1.4 mm 6 mps 754 mmHg 89%
    10:00 +29°C° 1.4 mm 6 mps 754 mmHg 87%
    11:00 +29°C° 1.4 mm 6 mps 754 mmHg 85%
    12:00 +29°C° 0.6 mm 6 mps 754 mmHg 85%
    13:00 +29°C° 0.6 mm 6 mps 753 mmHg 85%
    14:00 +29°C° 0.6 mm 6 mps 752 mmHg 84%
    15:00 +29°C° 0.4 mm 6 mps 752 mmHg 86%
    16:00 +28°C° 0.4 mm 5 mps 753 mmHg 88%
    17:00 +28°C° 0.4 mm 5 mps 753 mmHg 90%
    18:00 +28°C° 0.2 mm 6 mps 753 mmHg 91%
    19:00 +28°C° 0.2 mm 6 mps 754 mmHg 91%
    20:00 +27°C° 0.2 mm 6 mps 754 mmHg 92%
    21:00 +27°C° 0.7 mm 6 mps 754 mmHg 92%
    22:00 +27°C° 0.7 mm 6 mps 755 mmHg 92%
    23:00 +27°C° 0.7 mm 6 mps 755 mmHg 92%
    Show more